SCP
0 0 0 0 0 0 0 0 0 0 0 0 0 0 0 0 0 0 0 0 0 0 0 0 0 0 0 0 0 0 0 0 0 0 0 0 0 0 0 0 0 0 0 1
0 0 0 0 0 0 0 0 0 0 0 0 0 0 0 0 0 0 0 0 0 0 0 0 0 0 0 0 0 0 0 0 0 0 0 0 0 0 0 0 0 0 0 1
0 0 0 0 0 0 0 0 0 0 0 0 0 0 0 0 0 0 0 0 0 0 0 0 0 0 0 0 0 0 0 0 0 0 0 0 0 0 0 0 0 0 0 1
0 0 0 0 0 0 0 0 0 0 0 0 0 0 0 0 0 0 0 0 0 0 0 0 0 0 0 0 0 0 0 0 0 0 0 0 0 0 0 0 0 0 0 0
0 0 0 0 0 0 0 0 0 0 0 0 0 0 0 0 0 0 0 0 0 0 0 0 0 0 0 0 0 0 0 0 0 0 0 0 0 0 0 0 0 0 0 0
0 0 0 0 0 0 0 0 0 0 0 0 0 0 0 0 0 0 0 0 0 0 0 0 0 0 0 0 0 0 0 0 0 0 0 0 0 0 0 0 0 0 0 0
0 0 0 0 0 0 0 0 0 0 0 0 0 0 0 0 0 0 0 0 0 0 0 0 0 0 0 0 0 0 0 0 0 0 0 0 0 0 0 0 0 0 0 0
0 0 0 0 0 0 0 0 0 0 0 0 0 0 0 0 0 0 0 0 0 0 0 0 0 0 0 0 0 0 0 0 0 0 0 0 0 0 0 0 0 0 0 0
0 0 0 0 0 0 0 0 0 0 0 0 0 0 0 0 0 0 0 0 0 0 0 0 0 0 0 0 0 0 0 0 0 0 0 0 0 0 0 0 0 0 0 0
0 0 0 0 0 0 0 0 0 0 0 0 0 0 0 0 0 0 0 0 0 0 0 0 0 0 0 0 0 0 0 0 0 0 0 0 0 0 0 0 0 0 0 0
0 0 0 0 0 0 0 0 0 0 0 0 0 0 0 0 0 0 0 0 0 0 0 0 0 0 0 0 0 0 0 0 0 0 0 0 0 0 0 0 0 0 0 0
0 0 0 0 0 0 0 0 0 0 0 0 0 0 0 0 0 0 0 0 0 0 0 0 0 0 0 0 0 0 0 0 0 0 0 0 0 0 0 0 0 0 0 0
0 0 0 0 0 0 0 0 0 0 0 0 0 0 0 0 0 0 0 0 0 0 0 0 0 0 0 0 0 0 0 0 0 0 0 0 0 0 0 0 0 0 0 0
0 0 0 0 0 0 0 0 0 0 0 0 0 0 0 0 0 0 0 0 0 0 0 0 0 0 0 0 0 0 0 0 0 0 0 0 0 0 0 0 0 0 0 0
0 0 0 0 0 0 0 0 0 0 0 0 0 0 0 0 0 0 0 0 0 0 0 0 0 0 0 0 0 0 0 0 0 0 0 0 0 0 0 0 0 0 0 0
0 0 0 0 0 0 0 0 0 0 0 0 0 0 0 0 0 0 0 0 0 0 0 0 0 0 0 0 0 0 0 0 0 0 0 0 0 0 0 0 0 0 0 0
0 0 0 0 0 0 0 0 0 0 0 0 0 0 0 0 0 0 0 0 0 0 0 0 0 0 0 0 0 0 0 0 0 0 0 0 0 0 0 0 0 0 0 0
0 0 0 0 0 0 0 0 0 0 0 0 0 0 0 0 0 0 0 0 0 0 0 0 0 0 0 0 0 0 0 0 0 0 0 0 0 0 0 0 0 0 0 0
0 0 0 0 0 0 0 0 0 0 0 0 0 0 0 0 0 0 0 0 0 0 0 0 0 0 0 0 0 0 0 0 0 0 0 0 0 0 0 0 0 0 0 0
0 0 0 0 0 0 0 0 0 0 0 0 0 0 0 0 0 0 0 0 0 0 0 0 0 0 0 0 0 0 0 0 0 0 0 0 0 0 0 0 0 0 0 0
0 0 0 0 0 0 0 0 0 0 0 0 0 0 0 0 0 0 0 0 0 0 0 0 0 0 0 0 0 0 0 0 0 0 0 0 0 0 0 0 0 0 0 0
0 0 0 0 0 0 0 0 0 0 0 0 0 0 0 0 0 0 0 0 0 0 0 0 0 0 0 0 0 0 0 0 0 0 0 0 0 0 0 0 0 0 0 0
0 0 0 0 0 0 0 0 0 0 0 0 0 0 0 0 0 0 0 0 0 0 0 0 0 0 0 0 0 0 0 0 0 0 0 0 0 0 0 0 0 0 0 0
0 0 0 0 0 0 0 0 0 0 0 0 0 0 0 0 0 0 0 0 0 0 0 0 0 0 0 0 0 0 0 0 0 0 0 0 0 0 0 0 0 0 0 0
0 0 0 0 0 0 0 0 0 0 0 0 0 0 0 0 0 0 0 0 0 0 0 0 0 0 0 0 0 0 0 0 0 0 0 0 0 0 0 0 0 0 0 0
0 0 0 0 0 0 0 0 0 0 0 0 0 0 0 0 0 0 0 0 0 0 0 0 0 0 0 0 0 0 0 0 0 0 0 0 0 0 0 0 0 0 0 0
Wind_Speed
2 3 3 3 4 4 4 4 5 4 1 3 7 10 10 7 7 6 5 4 3 3 2 3 3 3 3 3 4 4 4 3 3 3 3 2 2 2 2 2 2 2 2 2
2 4 3 2 2 4 4 5 5 3 0 3 6 11 10 7 6 5 4 4 4 3 2 2 3 3 3 4 4 4 3 3 3 3 2 2 2 2 2 2 2 2 2 3
3 1 1 2 2 3 5 5 4 3 5 5 5 9 6 5 4 4 4 3 3 2 2 2 2 2 2 3 3 3 3 3 3 2 2 1 1 1 1 1 1 2 2 3
2 0 1 2 3 3 4 1 2 3 3 3 2 6 5 4 3 4 4 3 2 1 1 1 2 3 2 2 2 3 3 3 2 3 3 3 2 2 2 1 1 1 2 2
1 0 2 2 2 2 1 2 3 3 3 4 4 4 7 2 3 4 3 3 2 1 2 2 2 2 2 2 2 2 3 3 2 2 3 3 2 2 1 1 1 1 1 2
1 1 1 1 1 1 1 2 2 2 2 5 5 5 7 3 3 2 3 3 3 2 2 3 3 3 2 2 2 2 3 2 3 3 3 3 3 2 2 1 2 1 1 1
2 2 1 1 1 0 1 1 1 1 2 6 2 4 7 3 1 3 4 3 2 2 2 2 3 2 2 2 2 1 2 2 2 3 3 3 2 3 3 2 2 2 1 1
2 3 3 1 1 1 3 2 2 3 3 3 2 6 5 1 3 4 3 2 2 2 2 2 3 2 2 2 1 1 1 2 2 2 2 2 2 2 2 2 2 2 2 2
3 3 1 1 2 2 2 2 1 1 2 3 5 4 3 1 1 1 1 1 1 1 2 2 2 2 2 2 1 1 1 1 1 1 1 2 2 1 1 1 1 1 1 1
1 2 1 2 2 2 2 1 1 2 2 4 6 5 4 3 3 2 2 2 1 1 1 1 2 2 2 2 1 2 2 2 1 1 1 1 1 1 1 1 1 1 1 1
2 2 1 2 5 5 2 2 3 2 2 3 4 5 1 3 4 4 4 3 2 2 2 1 1 2 2 2 2 2 2 2 1 1 1 1 1 1 1 1 1 1 1 1
2 1 3 4 0 2 2 3 4 3 4 4 4 7 2 2 2 2 2 2 2 2 2 1 1 2 2 2 2 1 2 1 1 1 1 1 1 1 0 1 1 1 2 2
2 3 1 2 1 1 3 4 4 2 1 4 5 8 1 2 2 0 1 1 1 2 2 1 1 1 1 1 1 1 1 1 1 1 1 1 0 0 1 1 1 1 2 2
1 3 6 7 3 3 5 6 6 5 5 6 10 10 8 5 4 3 1 1 2 1 1 1 1 0 1 1 0 1 1 1 1 1 1 1 1 1 1 1 1 1 1 2
1 4 5 7 6 4 7 8 9 11 11 10 10 10 12 7 4 3 2 1 1 1 1 1 1 0 0 0 0 0 0 0 0 0 0 1 1 1 1 1 1 1 2 2
2 3 2 6 5 6 9 10 11 13 11 12 12 15 11 6 2 2 2 2 2 2 1 1 1 1 1 1 1 1 0 0 0 0 1 1 1 1 1 2 2 2 2 2
4 3 2 5 2 4 10 12 12 9 9 9 13 13 4 3 3 3 2 2 3 3 2 2 2 2 2 2 1 1 1 0 0 1 1 1 1 2 2 2 2 2 3 3
5 4 3 3 1 10 9 3 8 9 9 8 7 7 5 4 2 1 1 2 2 2 2 2 2 1 1 1 0 0 0 0 0 1 1 2 2 2 3 2 2 3 3 3
5 6 4 3 6 10 6 3 4 6 8 7 9 9 6 3 3 2 1 1 2 2 2 2 1 1 1 1 0 0 0 0 1 2 2 2 2 3 3 3 3 3 3 3
2 3 4 5 6 9 6 2 2 2 6 3 4 5 4 1 2 3 2 3 2 1 0 0 0 1 1 1 1 1 1 1 2 2 3 2 2 3 4 4 4 3 3 3
5 5 7 8 9 10 4 2 3 5 6 0 1 1 2 3 4 2 2 3 2 2 2 1 0 1 1 1 2 2 2 3 3 2 2 3 3 3 4 3 3 3 3 3
10 9 9 7 8 11 2 4 6 5 1 2 1 1 1 2 2 3 3 3 2 2 2 1 1 2 1 1 2 3 3 3 1 2 2 3 3 3 2 3 3 3 3 3
8 9 7 10 10 3 5 5 3 1 0 1 1 2 1 2 3 3 3 3 3 2 2 1 2 3 2 1 2 4 3 2 1 2 3 3 3 3 2 3 3 3 2 3
5 3 4 6 7 4 3 3 2 1 2 2 1 2 2 3 4 4 4 4 3 3 2 2 2 3 3 3 2 3 2 1 1 3 3 3 3 3 2 3 3 3 3 4
6 4 5 8 6 3 4 4 4 3 2 2 2 2 2 3 5 5 5 5 4 4 3 2 3 4 4 3 3 2 1 1 2 3 3 3 3 3 3 3 3 4 4 5
6 7 8 9 5 5 4 2 2 3 4 4 3 4 3 3 5 5 5 5 4 4 3 3 4 4 4 3 3 2 2 2 3 3 3 3 3 3 3 3 4 6 7 8
Wind_Direction
180 218 223 229 233 269 292 276 276 280 273 247 245 257 261 249 242 241 233 232 229 233 217 165 171 160 153 155 157 165 171 168 160 169 174 173 185 185 181 185 171 177 186 180
203 231 241 257 247 254 267 270 277 285 267 267 269 269 258 240 233 234 226 223 230 229 212 177 162 153 158 165 161 163 171 163 169 184 182 174 167 179 179 180 181 190 192 183
226 51 343 262 261 258 255 246 265 294 310 258 273 280 238 221 210 223 229 233 233 221 198 164 141 143 148 156 162 172 172 167 175 169 151 132 130 129 158 189 199 206 197 181
249 36 279 259 259 248 257 285 289 289 299 281 256 289 261 208 203 215 219 216 210 204 167 153 140 142 143 147 149 164 165 157 163 160 162 168 175 189 200 193 196 212 198 182
235 79 288 263 294 295 300 332 279 271 269 285 241 251 275 212 229 219 197 179 162 150 148 134 122 130 130 127 142 162 155 148 149 162 171 178 190 200 186 156 181 219 200 181
252 360 309 324 356 320 324 311 270 262 262 267 230 215 273 232 224 188 168 155 148 138 128 119 115 114 116 124 131 152 150 152 152 164 172 181 187 185 182 182 195 217 202 194
229 193 130 331 291 223 307 21 352 303 248 253 201 217 252 244 173 158 159 163 148 121 122 120 124 130 126 123 125 127 149 154 153 163 182 188 186 186 195 201 198 204 205 212
219 243 181 221 258 240 225 222 194 235 257 279 242 235 252 78 80 83 97 120 124 126 134 135 137 135 127 121 114 124 144 146 155 173 186 183 183 188 202 213 204 210 217 218
220 235 118 184 308 300 212 224 287 274 290 279 258 245 271 104 93 115 121 106 128 138 131 137 135 130 123 125 134 142 137 125 136 146 157 171 177 182 208 229 215 218 224 226
288 251 189 164 242 260 277 290 177 198 237 265 268 242 239 230 223 189 174 179 192 148 121 124 131 132 125 127 131 128 128 137 129 106 117 131 168 182 202 226 239 243 237 217
270 198 224 191 207 211 199 206 218 228 238 232 275 266 258 182 184 189 196 181 168 162 159 132 90 106 108 100 108 120 120 112 105 107 104 113 128 153 174 224 245 247 248 223
202 195 244 229 210 343 224 204 178 192 247 238 258 270 328 54 116 153 183 185 167 148 139 126 109 101 98 95 82 77 88 93 109 128 111 105 87 79 166 246 247 237 239 236
168 170 258 285 277 294 259 237 225 228 219 225 232 262 317 8 4 314 202 196 164 144 129 110 91 83 90 94 73 53 61 62 59 114 122 112 120 226 273 282 281 253 245 246
190 206 205 220 237 195 231 236 217 202 217 236 235 258 275 278 282 286 254 196 162 152 139 121 105 107 88 71 82 82 54 51 62 104 148 198 236 243 252 268 270 267 265 256
197 231 239 258 270 252 241 235 216 218 225 229 249 258 265 268 266 269 258 207 175 180 181 179 189 230 332 330 329 50 54 43 71 125 229 276 288 270 254 258 263 267 271 268
216 237 257 267 251 253 262 247 230 232 235 244 261 269 265 275 302 287 256 209 210 223 227 217 218 241 269 278 281 301 310 339 50 174 268 297 296 283 267 269 273 277 274 276
194 189 210 261 277 304 261 227 210 215 216 214 236 249 267 278 267 256 253 220 225 231 230 239 243 241 250 258 249 246 256 333 315 264 281 297 284 282 279 277 272 266 267 275
182 188 213 258 302 245 243 193 196 213 235 225 244 265 274 275 294 304 238 225 237 239 241 237 236 249 264 268 256 315 35 37 294 288 291 298 298 290 288 276 263 268 272 266
200 186 206 214 245 267 268 217 184 207 256 227 233 256 270 291 321 301 306 254 240 232 226 219 213 218 224 218 202 111 0 320 287 276 278 283 282 281 278 267 268 271 269 268
227 204 210 213 230 245 253 196 199 170 264 248 213 236 251 231 269 271 350 346 341 360 32 133 180 186 203 209 165 175 243 258 264 274 284 291 281 274 271 268 274 279 269 269
179 200 215 224 236 256 263 208 142 191 246 83 147 225 215 219 238 272 338 340 351 355 351 359 334 235 244 197 169 207 233 252 266 280 286 287 281 272 270 276 278 275 276 279
184 188 203 204 225 248 196 155 187 218 43 59 47 20 302 278 305 323 324 322 329 335 334 332 308 293 287 210 196 232 248 265 282 279 278 278 279 275 273 272 277 275 269 270
206 199 194 202 219 224 159 185 207 88 15 349 335 325 321 293 290 298 304 305 304 306 304 318 296 294 295 265 216 241 264 281 276 275 274 276 279 275 270 263 266 271 263 260
238 236 227 247 254 241 220 234 257 246 246 280 290 292 289 276 281 289 291 291 290 294 293 297 285 282 287 286 268 255 276 284 263 267 272 274 275 277 271 263 256 253 251 253
226 200 229 251 264 274 253 227 240 253 259 278 282 271 261 265 274 277 282 282 282 284 285 271 262 267 275 281 277 279 270 253 266 271 274 277 272 270 273 268 259 259 256 250
207 202 214 239 228 222 241 213 218 236 257 262 267 278 275 257 268 276 274 274 273 273 278 276 269 269 274 273 269 268 245 229 242 261 266 268 273 275 273 278 289 277 270 274